This demonstration page uses our WeatherBlox Daily Observations layout. Learn more.

Left ArrowRight Arrow

Hourly Observations for October 9, 2021

Temp ( °F °C ) Dew Point ( °F °C ) Humidity (%) Winds ( mph kmh ) Pressure ( in mb ) Visibility ( mi km ) Precip ( " mm )
12:56 am 00:56 Clear 62 16.7 55 12.8 78 78 N N/A 29.81 1010 10 16 N/A
1:56 am 01:56 Clear 57 13.9 53 11.7 87 87 E 6 9 29.77 1008 10 16 N/A
2:56 am 02:56 Clear 56 13.3 53 11.7 90 90 ESE 6 9 29.76 1008 10 16 N/A
5:56 am 05:56 Clear 58 14.4 55 12.8 90 90 N N/A 29.68 1005 10 16 N/A
6:56 am 06:56 Clear 57 13.9 56 13.3 96 96 ENE 8 13 29.66 1004 10 16 N/A
7:56 am 07:56 Mostly Sunny 59 15 57 13.9 93 93 ESE 7 11 29.63 1003 10 16 N/A
8:56 am 08:56 Sunny 61 16.1 58 14.4 90 90 VRB 3 6 29.62 1003 10 16 N/A
9:56 am 09:56 Sunny 61 16.1 59 15 93 93 SSE 7 11 29.61 1003 10 16 N/A
10:56 am 10:56 Sunny 63 17.2 60 15.6 90 90 S 5 7 29.60 1003 10 16 N/A
11:56 am 11:56 Sunny 67 19.4 60 15.6 79 79 SW 9 15 29.59 1002 10 16 N/A
12:56 pm 12:56 Sunny 69 20.6 59 15 70 70 SW 9 15 29.58 1002 10 16 N/A
1:56 pm 13:56 Sunny 73 22.8 59 15 62 62 SW 7 11 29.55 1001 10 16 N/A
2:56 pm 14:56 Sunny 76 24.4 56 13.3 50 50 W 12 19 29.54 1000 10 16 N/A
3:56 pm 15:56 Sunny 76 24.4 54 12.2 47 47 W 9 15 29.54 1000 10 16 N/A
4:56 pm 16:56 Sunny 77 25 58 14.4 52 52 W 8 13 29.55 1001 10 16 N/A
5:56 pm 17:56 Sunny 74 23.3 60 15.6 62 62 S 5 7 29.56 1001 10 16 N/A
6:56 pm 18:56 Sunny 72 22.2 59 15 64 64 SSW 5 7 29.57 1002 10 16 N/A
7:56 pm 19:56 Clear 68 20 58 14.4 70 70 NW 3 6 29.60 1002 10 16 N/A
8:56 pm 20:56 Clear 63 17.2 56 13.3 78 78 N N/A 29.61 1003 10 16 N/A
9:56 pm 21:56 Mostly Clear 65 18.3 55 12.8 70 70 WNW 5 7 29.62 1003 10 16 N/A
10:56 pm 22:56 Clear 62 16.7 52 11.1 70 70 WNW 6 9 29.63 1004 10 16 N/A
11:56 pm 23:56 Clear 60 15.6 47 8.3 62 62 NW 9 15 29.66 1005 10 16 N/A

Powered by AerisWeather